BEIDOU-3 M7 (C27)

Last updated on Fri Aug 14 2026 00:03:31 GMT+0000 (Coordinated Universal Time)

1 43107U 18003A 26224.73142273 -.00000055 00000+0 00000+0 0 9991 2 43107 54.2744 300.3411 0003815 104.1520 255.9607 1.86227913 58405
UTC large
Height (km)
Speed (km/s)
/
Latitude / Longitude
Inclination (degrees)
Orbital Period (minutes)
Azimuth
Elevation
Range (km)
Doppler Factor

Next 0 passes for location: London (51.5072 / 0.1276)

No passes found over London.
BEIDOU-3 M7 (C27)